Content
SEND FEEDBACK

Daily
Averages
Monthly
Summary
Brazil

TERESINA, PIAUI


Home > South America > Brazil > Piaui
Elevation: 328 feet     Latitude: 05 03S     Longitude: 042 48W

WEATHER
 
SELECT A DAY
Number of Records: 163,911;   Date Range: 6/30/96 - 8/31/14
 
SHARE

PRINT THIS DATA

[ ← Previous Day ]
WEATHER ALMANAC - MARCH 23, 2013
[ Next Day → ]
[ °C ]   °F
Weather ElementAverageHighLow
Temperature83 °F91.4 °F (2:00 pm)78 °F (9:00 pm)
Dewpoint76 °F77 °F (1:00 am)73.4 °F (11:00 am)
Humidity79.9 %94 % (3:00 am)52 % (3:00 pm)
Barometer29.81 in29.90 in (9:00 am)29.71 in (4:00 pm)
Wind Speed1.8 mph5.8 mph (4:00 pm)
Weather ElementAverage
Visibility7.3 mi
Wind DirectionSSE (158.1 °)

Weather ElementTotal
Precipitation---
Cooling Degree Days19.7 (Base 65)
Growing Degree Days34.7 (Base 50)
Averaged from 27 records on March 23, 2013
WEATHER CONDITIONS BREAKOUT
WIND DIRECTION BREAKOUT
WEATHER BY HOUR - MARCH 23, 2013
[ °C ]   °F
Local TimeTemperatureDewpointHumidityBarometerVisibilityWind DirectionWind SpeedGust SpeedPrecipitationEventsConditions
1:00 AM80.6 °F77.0 °F89 %29.83 in6.2 miNNW (340°)2.3 mphMostly Cloudy
2:00 AM80.6 °F77.0 °F89 %29.80 in6.2 miNNW (340°)2.3 mphMostly Cloudy
3:00 AM79.0 °F77.0 °F91 %29.81 in12.0 miNorth (350°)2.3 mphScattered Clouds
3:00 AM78.8 °F77.0 °F94 %29.80 in6.2 miNorth (350°)2.3 mphMostly Cloudy
4:00 AM78.8 °F77.0 °F94 %29.80 inNorth (360°)1.2 mphClear
5:00 AM78.8 °F77.0 °F94 %29.83 in6.2 miNNW (340°)1.2 mphMostly Cloudy
6:00 AM78.8 °F77.0 °F94 %29.83 in6.2 miCalmMostly Cloudy
7:00 AM78.8 °F77.0 °F94 %29.86 in6.2 miCalmMostly Cloudy
8:00 AM80.6 °F77.0 °F89 %29.89 in6.2 miNNE (20°)2.3 mphMostly Cloudy
9:00 AM83.0 °F75.0 °F71 %29.90 in12.0 miNNE (30°)2.3 mphPartly Cloudy
9:00 AM84.2 °F75.2 °F74 %29.89 in6.2 miNNE (30°)2.3 mphScattered Clouds
10:00 AM86.0 °F75.2 °F70 %29.89 in6.2 miNE (40°)2.3 mphMostly Cloudy
11:00 AM87.8 °F73.4 °F62 %29.86 in6.2 miENE (70°)2.3 mphScattered Clouds
12:00 PM89.6 °F75.2 °F62 %29.83 in6.2 miENE (70°)1.2 mphMostly Cloudy
1:00 PM89.6 °F75.2 °F62 %29.80 in6.2 miWest (260°)2.3 mphMostly Cloudy
2:00 PM91.4 °F73.4 °F55 %29.77 in6.2 miSSW (210°)2.3 mphMostly Cloudy
3:00 PM91.0 °F76.0 °F52 %29.73 in12.0 miWSW (240°)2.3 mphScattered Clouds
3:00 PM91.4 °F75.2 °F59 %29.74 in6.2 miWSW (240°)2.3 mphMostly Cloudy
4:00 PM87.8 °F77.0 °F70 %29.71 in6.2 miSouth (190°)5.8 mphMostly Cloudy
5:00 PM87.8 °F77.0 °F70 %29.74 in6.2 miSE (140°)3.5 mphMostly Cloudy
6:00 PM82.4 °F75.2 °F79 %29.77 in6.2 miENE (60°)2.3 mphMostly Cloudy
7:00 PM80.6 °F73.4 °F79 %29.77 inEast (80°)2.3 mphClear
8:00 PM78.8 °F75.2 °F89 %29.80 inCalmClear
9:00 PM78.0 °F76.0 °F92 %29.82 in12.0 miCalm
9:00 PM78.8 °F77.0 °F94 %29.83 inCalmClear
10:00 PM78.8 °F77.0 °F94 %29.83 inCalmClear
11:00 PM78.8 °F77.0 °F94 %29.83 inNorth (350°)2.3 mphClear
Hourly data recorded from SBTE, located miles away from Teresina, Piaui







STORIES FROM OUR PARTNERS